Back to catalog

DELTA 1 DEB

AlivePO
NORAD 21914·DEBRIS·🇺🇸 United States

Launched Jun 12, 1975 from Vandenberg Space Force Base

Loading…

Next Passes (next 24 hours)

TLE

FreshSource: Space-Track

Epoch: Sep 13, 2026, 11:03 UTC

1 21914U 75052JS  26256.46087752  .00000038  00000-0  39814-3 0  9995
2 21914  99.4471 251.1943 0631201 274.8143 247.0600 12.13890043537139

Track DELTA 1 DEB in real time with AllMySat

Download on the App Store